This is the latest recevied weather packets stored in our database for station/object WK7G. If no packets are shown the sender has not sent any weather packets the latest 10 day(s).
| Time | Temp. | Humidity | Pressure | Rain* | Wind** | Luminosity | Snow |
|---|---|---|---|---|---|---|---|
| 1777858605 | 17.22° C | 29% | 1005.4 hPa | 0 mm | - | 29 W/m² | - |
| 1777858302 | 17.78° C | 28% | 1005.2 hPa | 0 mm | - | 32 W/m² | - |
| 1777857999 | 17.78° C | 25% | 1005.4 hPa | 0 mm | - | 39 W/m² | - |
| 1777857697 | 17.78° C | 28% | 1005.4 hPa | 0 mm | - | 35 W/m² | - |
| 1777857393 | 17.78° C | 29% | 1005.5 hPa | 0 mm | - | 36 W/m² | - |
| 1777857090 | 17.78° C | 29% | 1005.4 hPa | 0 mm | - | 105 W/m² | - |
| 1777856786 | 18.33° C | 25% | 1005.4 hPa | 0 mm | - | 51 W/m² | - |
| 1777856482 | 18.33° C | 27% | 1005.2 hPa | 0 mm | - | 49 W/m² | - |
| 1777856179 | 18.33° C | 27% | 1005.6 hPa | 0 mm | - | 155 W/m² | - |
| 1777855876 | 18.33° C | 27% | 1005.6 hPa | 0 mm | - | 44 W/m² | - |
| 1777855574 | 18.89° C | 29% | 1005.5 hPa | 0 mm | - | 45 W/m² | - |
| 1777855271 | 18.89° C | 27% | 1005.6 hPa | 0 mm | - | 46 W/m² | - |
| 1777854967 | 18.89° C | 27% | 1005.6 hPa | 0 mm | - | 53 W/m² | - |
| 1777854664 | 18.89° C | 26% | 1005.8 hPa | 0 mm | - | 238 W/m² | - |
| 1777854361 | 18.89° C | 26% | 1005.6 hPa | 0 mm | - | 260 W/m² | - |
| 1777854058 | 18.89° C | 26% | 1005.7 hPa | 0 mm | - | 293 W/m² | - |
| 1777853756 | 19.44° C | 25% | 1005.7 hPa | 0 mm | - | 297 W/m² | - |
| 1777853451 | 19.44° C | 27% | 1005.9 hPa | 0 mm | - | 314 W/m² | - |
| 1777853149 | 19.44° C | 27% | 1005.7 hPa | 0 mm | - | 347 W/m² | - |
| 1777852846 | 19.44° C | 27% | 1005.9 hPa | 0 mm | - | 369 W/m² | - |
| 1777852545 | 19.44° C | 23% | 1005.8 hPa | 0 mm | - | 382 W/m² | - |
| 1777852241 | 20° C | 25% | 1005.9 hPa | 0 mm | - | 436 W/m² | - |
| 1777851938 | 20° C | 25% | 1005.9 hPa | 0 mm | - | 451 W/m² | - |
| 1777851637 | 20° C | 28% | 1005.9 hPa | 0 mm | - | 479 W/m² | - |
| 1777851333 | 19.44° C | 28% | 1005.9 hPa | 0 mm | - | 513 W/m² | - |
* Rain latest hour (hover to see other rain measurements)
** Current wind speed in m/s (hover to see current wind gust speed)